Find Starlink 5456

NORAD ID: 55667 Int'l Des: 2023-021 Owner: SPXS Country: US Constellation: starlink operational
LEOCIRCULAR

現在のビュー

3D地球を読み込み中...

About Starlink 5456

Starlink 5456 (NORAD 55667) is a starlink constellation satellite (v1.5) launched Feb 17, 2023 by SPXS of US. It operates in LEO, CIRCULAR orbit with a mass of 305.00 kg.

Starlink 5456について

説明を読み込み中...

次回通過

Passes for default location (London). Set your location on the main map for personalized predictions.

高度履歴

Loading altitude history...

軌道要素

1 55667U 23021AR 26169.60553423 -.00000088 00000-0 43660-6 0 9991
2 55667 69.9990 269.8921 0003219 267.4146 92.6644 14.98331015184396
Epoch: Jun 18, 2026 • Age: 12 hours

現在のステータス

高度 578.0 km
速度 7.57 km/s
衛星直下点 37.33°N, 129.72°E
打ち上げ日 Feb 17, 2023
運用期間 3.3 years
タイプ internet

技術仕様

分類 Payload
質量 305.00 kg
乾燥質量 290.00 kg
総質量 305.00 kg
長さ 0.20 m
直径 2.80 m
スパン 9.00 m
形状 Box + pan
製造者 SPXS
バスタイプ Starlink
フェーズステータス In Orbit
所有者/国 SPXS/US

Most Searched